Location: Erlenbrunn
(49.1717°N, 7.6142°E)
Time: 13:05:46
(UTC+00:00)

Cosmos 2369 Rocket - Pass Details

Date: 25 November 2020
Orbit: 829 x 852 km, 71.0° (Epoch: 25 January)

Event Time Altitude Azimuth Distance (km) Brightness Sun altitude
Rises 19:22:26 0° 325° (NW) 3,425 5.9 -36.1°
Reaches altitude 10° 19:25:05 10° 317° (NW) 2,483 5.1 -36.5°
Enters shadow 19:29:14 33° 274° (W) 1,393 3.7 -37.2°
